Flag for Seychelles Weather past 2 weeks in Victoria, Seychelles

Now
79 °F

Sprinkles. Partly cloudy.


Feels Like: 82 °F
Forecast: 75 / 81 °F
Wind: 9 mph from Southeast

Location: National Airport

Current Time: Jul 2, 2015 at 8:46:35 PM

Latest Report: Jul 2, 2015 at 8:00 PM


Visibility: N/A

Pressure: 29.98 "Hg

Humidity: 84%

Dew point: 73 °F

Location of VictoriaLocation

Historic Weather in Victoria — Graph

°F

Victoria temperature yesterday

Maximum temperature yesterday: 86 °F (at 12:00 PM)
Minimum temperature yesterday: 79 °F (at 6:00 AM)
Average temperature yesterday: 82 °F

Past Weeks' High & Low Weather Summary

 TemperatureHumidityPressure
High86 °F (Jun 18, 10:00 AM)94% (Jun 18, 1:00 AM)29.98 "Hg (Jun 18, 1:00 AM)
Low77 °F (Jun 26, 2:00 AM)66% (Jun 26, 10:00 AM)29.24 "Hg (Jul 1, 2:00 PM)
Average82 °F81%29.89 "Hg
* Reported Jun 17 8:00 PM — Jul 2 8:00 PM, Victoria, Weather by CustomWeather, © 2015

Note: Actual official high and low records may vary slightly from our data, if they occured in-between our weather recording intervals... More about our weather records

Advertising

Victoria weather history for previous 24 hours

 ConditionsComfort  
Time TempWeatherWind HumidityBarometerVisibility
8:00 PM
Thu, Jul 2
79 °FSprinkles. Partly cloudy.9 mph84%29.98 "HgN/A
7:00 PM81 °FPassing clouds.12 mph79%29.95 "HgN/A
6:00 PM79 °FBroken clouds.6 mph89%29.92 "HgN/A
5:00 PM82 °FBroken clouds.9 mph79%29.92 "HgN/A
4:00 PM82 °FBroken clouds.7 mph79%29.89 "HgN/A
3:00 PM82 °FBroken clouds.7 mph79%29.89 "HgN/A
2:00 PM82 °FBroken clouds.6 mph79%29.92 "HgN/A
1:00 PM84 °FBroken clouds.7 mph74%29.92 "HgN/A
12:00 PM84 °FPartly sunny.7 mph74%29.95 "HgN/A
11:00 AM82 °FBroken clouds.7 mph74%29.98 "HgN/A
10:00 AM81 °FBroken clouds.5 mph84%29.98 "HgN/A
9:00 AM77 °FRain showers. Partly sunny.8 mph89%29.98 "HgN/A
8:00 AM79 °FPartly sunny.15 mph94%29.98 "HgN/A
7:00 AM79 °FScattered clouds.3 mph89%29.95 "HgN/A
6:00 AM79 °FPartly cloudy.8 mph84%29.92 "HgN/A
5:00 AM79 °FPassing clouds.9 mph89%29.92 "HgN/A
4:00 AM79 °FPartly cloudy.5 mph89%29.89 "HgN/A
3:00 AM79 °FPartly cloudy.8 mph89%29.92 "HgN/A
2:00 AM81 °FPartly cloudy.8 mph84%29.92 "HgN/A
1:00 AM81 °FPassing clouds.7 mph84%29.92 "HgN/A
12:00 AM81 °FPartly cloudy.7 mph84%29.95 "HgN/A
11:00 PM
Wed, Jul 1
81 °FPartly cloudy.7 mph84%29.95 "HgN/A
10:00 PM81 °FPassing clouds.6 mph84%29.95 "HgN/A
9:00 PM81 °FPassing clouds.6 mph84%29.95 "HgN/A
8:00 PM81 °FPassing clouds.7 mph84%29.92 "HgN/A
Weather by CustomWeather, © 2015

See weather overviewHow to use our weather pages